[[{"header":{"parameterUnit":"m.s-1","parameterCategory":1,"la1":30.2991,"la2":30.254,"lo1":-89.0895,"lo2":-89.0444,"dy":0.0017,"dx":0.0017,"nx":28,"ny":28,"refTime":"2025-09-08T21:00:00:Z","depth":0,"parameterNumber":2,"parameterNumberName":"U-component_of_WINDS"},"data":[0,0,0,0,0,0,0,0,0,0,0,0,0,0,0,0,0,0,0,0,0,0,0,0,0,0,0,0,0,0,0,0,0,0,0,0,0,0,0,0,0,0,0,0,0,0,0,0,0,0,0,0,0,0,0,0,0,0,-2.1085,-2.1085,0,-2.1113,-2.1114,-2.1114,-2.1066,-2.1064,-2.1063,-2.1061,-2.109,-2.1093,-2.1095,0,0,0,0,0,0,0,0,0,0,0,0,0,-2.099,-2.0992,-2.1085,-2.1085,-2.1086,-2.1113,-2.1114,-2.1114,-2.1066,-2.1064,-2.1062,-2.106,-2.109,-2.1092,-2.1095,0,0,0,0,0,0,0,0,0,0,0,0,0,-2.1026,-2.0992,-2.1085,-2.1065,-2.1064,-2.1113,-2.1114,-2.1114,-2.1067,-2.1064,-2.1062,-2.106,-2.1089,-2.1092,-2.1096,-2.1166,0,0,-2.1106,-2.1108,0,0,0,0,0,0,0,0,-2.1024,-2.1029,-2.1068,-2.1067,-2.1065,-2.1084,-2.1091,-2.1131,-2.1067,-2.1066,-2.1061,-2.1058,-2.109,-2.1093,-2.1104,-2.1167,-2.1168,-2.1106,-2.1109,-2.111,-2.1111,0,0,0,0,0,0,0,-2.1021,-2.1028,-2.1096,-2.1068,-2.1067,-2.1055,-2.1057,-2.1098,-2.1091,-2.1066,-2.1062,-2.1066,-2.1089,-2.1101,-2.1104,-2.1169,-2.1106,-2.1109,-2.1112,-2.1113,-2.1291,-2.1294,0,0,0,0,0,0,-2.1021,-2.1026,-2.1095,-2.1097,-2.1038,-2.1059,-2.1061,-2.108,-2.1091,-2.109,-2.1068,-2.1064,-2.1096,-2.11,-2.1105,-2.1189,-2.111,-2.1113,-2.1115,-2.1289,-2.1292,-2.1295,0,0,0,0,0,0,-2.1019,-2.1028,-2.1094,-2.1061,-2.1068,-2.1063,-2.1084,-2.1082,-2.1094,-2.1093,-2.1091,-2.1082,-2.1094,-2.11,-2.1151,-2.119,-2.1115,-2.1118,-2.1286,-2.129,-2.1294,-2.1357,0,0,0,0,0,0,-2.1017,-2.1028,-2.1054,-2.1062,-2.107,-2.114,-2.1087,-2.1084,-2.11,-2.1094,-2.1105,-2.1104,-2.1093,-2.1146,-2.1155,-2.1193,-2.1121,-2.1282,-2.1288,-2.1292,-2.1352,-2.1363,-2.1372,0,0,0,0,0,-2.1014,-2.1071,-2.1056,-2.1065,-2.1103,-2.1142,-2.1147,-2.1133,-2.1103,-2.113,-2.1129,-2.1104,-2.1183,-2.1152,-2.1161,-2.1201,-2.128,-2.1286,-2.1292,-2.1347,-2.1361,-2.1372,0,0,0,0,0,0,-2.1069,-2.1072,-2.1055,-2.1116,-2.1129,-2.1134,-2.1168,-2.1148,-2.117,-2.1164,-2.1145,-2.1147,-2.1203,-2.1206,-2.1171,-2.1269,-2.1227,-2.1235,-2.1266,-2.1279,-2.1289,-2.1288,-2.1123,0,0,0,0,0,-2.1088,-2.1119,-2.112,-2.1174,-2.1181,-2.1173,-2.119,-2.1177,-2.119,-2.1196,-2.1198,-2.1212,-2.124,-2.1259,-2.1285,-2.1351,-2.1353,-2.1383,-2.1393,-2.1402,-2.141,-2.1446,-2.146,-2.1315,-2.1315,-2.1315,0,0,-2.1128,-2.1133,-2.1154,-2.1185,-2.1194,-2.1227,-2.1178,-2.1215,-2.124,-2.1201,-2.125,-2.1252,-2.1266,-2.1325,-2.1352,-2.133,-2.145,-2.1409,-2.1416,-2.142,-2.1454,-2.1468,-2.148,-2.1319,-2.1318,-2.1317,0,0,-2.1218,-2.1225,-2.1271,-2.1281,-2.1295,-2.1289,-2.13,-2.1308,-2.1308,-2.1356,-2.1328,-2.1357,-2.1405,-2.1417,-2.1429,-2.1523,-2.1501,-2.1531,-2.1587,-2.1622,-2.1634,-2.1644,-2.1679,-2.1692,-2.1539,-2.1539,-2.1539,0,-2.1267,-2.1316,-2.1298,-2.1337,-2.1352,-2.1317,-2.1365,-2.1375,-2.1396,-2.1407,-2.1382,-2.1443,-2.145,-2.1512,-2.1535,-2.1545,-2.1558,-2.1531,-2.1633,-2.1643,-2.1653,-2.1686,-2.1699,-2.1543,-2.1542,-2.1542,-2.1541,0,-2.1375,-2.1409,-2.1445,-2.1467,-2.1485,-2.1528,-2.1517,-2.1537,-2.1523,-2.152,-2.157,-2.1577,-2.1604,-2.1617,-2.1603,-2.1677,-2.1664,-2.1636,-2.1593,-2.1671,-2.1702,-2.1714,-2.1548,-2.1547,-2.1546,-2.1545,0,0,-2.1503,-2.1514,-2.1527,-2.1537,-2.1549,-2.1576,-2.1616,-2.1643,-2.1662,-2.1677,-2.1712,-2.1753,-2.1728,-2.1742,-2.1729,-2.176,-2.1836,-2.1729,-2.1729,-2.175,-2.1919,-2.1942,-2.1957,-2.182,-2.1823,-2.1824,-2.1919,0,-2.1594,-2.1666,-2.1651,-2.1721,-2.1753,-2.1721,-2.1756,-2.1768,-2.1766,-2.1793,-2.179,-2.182,-2.1784,-2.1792,-2.1821,-2.1821,-2.187,-2.1813,-2.1854,-2.1855,-2.1854,-2.1972,-2.1996,-2.2085,-2.1931,-2.1933,-2.1934,0,-2.1711,-2.1732,-2.1805,-2.1813,-2.1826,-2.1858,-2.1881,-2.1907,-2.1919,-2.1915,-2.193,-2.1911,-2.1952,-2.1907,-2.1964,-2.1926,-2.1941,-2.1943,-2.1946,-2.1951,-2.1901,-2.1983,-2.2113,-2.2127,-2.1953,-2.1951,-2.195,0,-2.18,-2.1845,-2.1895,-2.1904,-2.1914,-2.1938,-2.1943,-2.1952,-2.1969,-2.1989,-2.2,-2.2023,-2.2037,-2.2056,-2.2044,-2.2012,-2.2104,-2.2057,-2.2103,-2.2104,-2.2126,-2.2125,-2.2262,-2.2132,-2.2132,-2.2131,-2.2131,0,-2.1905,-2.1952,-2.1935,-2.1967,-2.2018,-2.2,-2.2051,-2.2052,-2.2061,-2.2092,-2.2064,-2.2094,-2.2075,-2.2103,-2.2094,-2.2143,-2.2149,-2.2148,-2.2145,-2.2152,-2.2152,-2.2163,-2.2158,-2.2135,-2.2134,-2.2134,-2.2133,0,-2.2014,-2.2004,-2.2057,-2.2061,-2.2064,-2.2102,-2.2105,-2.2134,-2.2129,-2.2169,-2.2177,-2.217,-2.2202,-2.2191,-2.2224,-2.2218,-2.2282,-2.227,-2.2278,-2.2276,-2.2323,-2.232,-2.2474,-2.2494,-2.2349,-2.235,-2.2351,0,-2.2083,-2.2118,-2.2126,-2.2145,-2.2152,-2.2183,-2.22,-2.2182,-2.2201,-2.2217,-2.2245,-2.2274,-2.2296,-2.2348,-2.2346,-2.2372,-2.2362,-2.2414,-2.2366,-2.2372,-2.2365,-2.2365,-2.2369,-2.2425,-2.2427,-2.2428,-2.2429,0,-2.2207,-2.2201,-2.2226,-2.2251,-2.2272,-2.229,-2.2305,-2.2322,-2.2305,-2.2328,-2.236,-2.2378,-2.2412,-2.2442,-2.2465,-2.247,-2.2448,-2.2444,-2.2456,-2.2465,-2.2469,-2.2469,-2.2307,-2.2441,-2.244,-2.2439,-2.2438,-2.2438,-2.23,-2.233,-2.2341,-2.237,-2.238,-2.2395,-2.2423,-2.2421,-2.2448,-2.2475,-2.2462,-2.25,-2.2511,-2.2539,-2.2547,-2.2577,-2.2556,-2.2574,-2.2579,-2.2584,-2.2591,-2.2462,-2.258,-2.258,-2.258,-2.2579,-2.2579,0,-2.2425,-2.243,-2.2457,-2.248,-2.2503,-2.2478,-2.2494,-2.2516,-2.2549,-2.2561,-2.2583,-2.2621,-2.2649,-2.2648,-2.2675,-2.2698,-2.2689,-2.2706,-2.2706,-2.2707,-2.2606,-2.2594,-2.2714,-2.2714,-2.2714,-2.2713,-2.2713,-2.2713,-2.2493,-2.2543,-2.2538,-2.2593,-2.2597,-2.2634,-2.2645,-2.2659,-2.2668,-2.2711,-2.2735,-2.2734,-2.2741,-2.2768,-2.2793,-2.2792,-2.2804,-2.2826,-2.2821,-2.2728,-2.2714,-2.2702,-2.269,-2.2828,-2.2828,-2.292,-2.2921,-2.2922]},{"header":{"parameterUnit":"m.s-1","parameterCategory":1,"la1":30.2991,"la2":30.254,"lo1":-89.0895,"lo2":-89.0444,"dy":0.0017,"dx":0.0017,"nx":28,"ny":28,"refTime":"2025-09-08T21:00:00:Z","depth":0,"parameterNumber":3,"parameterNumberName":"V-component_of_WINDS"},"data":[0,0,0,0,0,0,0,0,0,0,0,0,0,0,0,0,0,0,0,0,0,0,0,0,0,0,0,0,0,0,0,0,0,0,0,0,0,0,0,0,0,0,0,0,0,0,0,0,0,0,0,0,0,0,0,0,0,0,-5.31,-5.31,0,-5.3153,-5.3154,-5.3155,-5.3109,-5.3107,-5.3105,-5.3103,-5.3153,-5.3156,-5.3159,0,0,0,0,0,0,0,0,0,0,0,0,0,-5.2952,-5.2955,-5.3099,-5.31,-5.3101,-5.3153,-5.3154,-5.3155,-5.3109,-5.3107,-5.3105,-5.3102,-5.3152,-5.3156,-5.316,0,0,0,0,0,0,0,0,0,0,0,0,0,-5.3012,-5.2956,-5.3099,-5.3085,-5.3084,-5.3153,-5.3154,-5.3155,-5.311,-5.3107,-5.3104,-5.3101,-5.3151,-5.3156,-5.316,-5.3245,0,0,-5.3174,-5.3176,0,0,0,0,0,0,0,0,-5.3008,-5.3017,-5.3086,-5.3086,-5.3085,-5.3122,-5.312,-5.3185,-5.311,-5.31,-5.3103,-5.31,-5.3145,-5.315,-5.3166,-5.3248,-5.325,-5.3175,-5.3177,-5.3179,-5.3181,0,0,0,0,0,0,0,-5.3004,-5.3015,-5.3121,-5.3087,-5.3086,-5.3073,-5.3079,-5.3132,-5.3137,-5.31,-5.3097,-5.3105,-5.3144,-5.3161,-5.3167,-5.325,-5.3175,-5.3179,-5.3181,-5.3183,-5.3405,-5.3408,0,0,0,0,0,0,-5.3002,-5.3011,-5.3119,-5.3122,-5.3039,-5.3079,-5.3085,-5.3113,-5.3137,-5.3138,-5.3107,-5.3102,-5.3155,-5.3161,-5.3168,-5.327,-5.3179,-5.3184,-5.3186,-5.3402,-5.3405,-5.3409,0,0,0,0,0,0,-5.2999,-5.3013,-5.3117,-5.3066,-5.3078,-5.3084,-5.3116,-5.3115,-5.3133,-5.3142,-5.3142,-5.3125,-5.3153,-5.3162,-5.3227,-5.3271,-5.3186,-5.319,-5.3398,-5.3403,-5.3407,-5.3473,0,0,0,0,0,0,-5.2995,-5.3012,-5.3045,-5.3067,-5.3081,-5.3176,-5.3119,-5.3118,-5.3142,-5.3136,-5.3158,-5.3159,-5.3151,-5.322,-5.3231,-5.3276,-5.3194,-5.3394,-5.34,-5.3405,-5.3467,-5.348,-5.349,0,0,0,0,0,-5.299,-5.3061,-5.3047,-5.306,-5.3124,-5.3179,-5.3187,-5.3178,-5.3145,-5.3178,-5.3184,-5.3158,-5.3264,-5.3227,-5.3239,-5.3286,-5.3391,-5.3398,-5.3405,-5.3462,-5.3477,-5.349,0,0,0,0,0,0,-5.3041,-5.3063,-5.3049,-5.3128,-5.3153,-5.3171,-5.3213,-5.3194,-5.3227,-5.322,-5.3206,-5.3212,-5.3281,-5.3289,-5.3248,-5.3369,-5.3322,-5.3332,-5.3361,-5.3376,-5.3387,-5.3383,-5.3197,0,0,0,0,0,-5.3062,-5.3107,-5.3123,-5.3192,-5.3205,-5.3207,-5.323,-5.3222,-5.3245,-5.3255,-5.3265,-5.3287,-5.3326,-5.3351,-5.3387,-5.3468,-5.3472,-5.3506,-5.3518,-5.3527,-5.3536,-5.3579,-5.3595,-5.3432,-5.3432,-5.3431,0,0,-5.3105,-5.3123,-5.3151,-5.3202,-5.322,-5.3265,-5.3215,-5.3265,-5.3298,-5.3262,-5.3325,-5.3333,-5.3357,-5.3431,-5.3464,-5.344,-5.3581,-5.3536,-5.3543,-5.3547,-5.3588,-5.3604,-5.3617,-5.3436,-5.3435,-5.3435,0,0,-5.3207,-5.3225,-5.3285,-5.3304,-5.3332,-5.3333,-5.3347,-5.3369,-5.3374,-5.3437,-5.3411,-5.3449,-5.3515,-5.3533,-5.3551,-5.3661,-5.3638,-5.3672,-5.3733,-5.3776,-5.3788,-5.38,-5.3839,-5.3853,-5.3681,-5.3681,-5.3681,0,-5.3256,-5.3325,-5.3317,-5.3369,-5.3392,-5.3363,-5.3423,-5.3441,-5.3479,-5.3494,-5.3468,-5.3551,-5.3565,-5.3643,-5.367,-5.3685,-5.37,-5.367,-5.3788,-5.3799,-5.3809,-5.3846,-5.3861,-5.3685,-5.3685,-5.3684,-5.3684,0,-5.3385,-5.3433,-5.3477,-5.3517,-5.3544,-5.36,-5.3599,-5.3627,-5.3617,-5.362,-5.3684,-5.37,-5.3739,-5.3757,-5.3746,-5.3833,-5.3818,-5.379,-5.3742,-5.3829,-5.3864,-5.3878,-5.3691,-5.3689,-5.3688,-5.3687,0,0,-5.352,-5.3555,-5.3571,-5.3589,-5.3618,-5.3654,-5.3708,-5.3748,-5.3773,-5.3799,-5.3843,-5.3901,-5.3875,-5.3896,-5.3886,-5.3924,-5.401,-5.3891,-5.3892,-5.3913,-5.4107,-5.4128,-5.4145,-5.3995,-5.3998,-5.4,-5.4105,0,-5.3623,-5.3719,-5.3713,-5.3803,-5.3847,-5.382,-5.3867,-5.3889,-5.3893,-5.393,-5.3934,-5.3975,-5.3938,-5.3951,-5.3987,-5.3992,-5.4049,-5.3984,-5.4035,-5.4037,-5.403,-5.4163,-5.4185,-5.4284,-5.4119,-5.4121,-5.4123,0,-5.3756,-5.379,-5.3885,-5.3908,-5.3926,-5.3969,-5.4005,-5.404,-5.4064,-5.4065,-5.4089,-5.4073,-5.4126,-5.4077,-5.4149,-5.4106,-5.4126,-5.4132,-5.4135,-5.414,-5.4085,-5.4171,-5.4315,-5.433,-5.4144,-5.4142,-5.414,0,-5.3845,-5.3914,-5.398,-5.3996,-5.4025,-5.4055,-5.4068,-5.4089,-5.4114,-5.4145,-5.416,-5.4196,-5.4216,-5.4243,-5.4237,-5.4202,-5.4311,-5.4262,-5.4312,-5.4312,-5.4336,-5.4335,-5.4486,-5.4349,-5.4349,-5.4349,-5.4348,0,-5.3961,-5.402,-5.4021,-5.4062,-5.4126,-5.4118,-5.4182,-5.4191,-5.4211,-5.4251,-5.4229,-5.4268,-5.4258,-5.4295,-5.4291,-5.4351,-5.436,-5.4361,-5.4359,-5.4363,-5.4363,-5.4376,-5.4369,-5.4353,-5.4352,-5.4351,-5.435,0,-5.4072,-5.4075,-5.4145,-5.4167,-5.4174,-5.4221,-5.4239,-5.4276,-5.4279,-5.4331,-5.4342,-5.4347,-5.439,-5.4387,-5.4434,-5.4431,-5.4506,-5.4496,-5.4499,-5.4497,-5.4547,-5.4543,-5.4712,-5.4734,-5.4583,-5.4585,-5.4586,0,-5.4146,-5.4192,-5.4219,-5.4246,-5.4262,-5.4305,-5.433,-5.4323,-5.435,-5.4382,-5.4415,-5.4457,-5.4489,-5.4559,-5.4565,-5.4601,-5.4592,-5.4649,-5.4597,-5.46,-5.4593,-5.4591,-5.4595,-5.4659,-5.4661,-5.4662,-5.4663,0,-5.4278,-5.4277,-5.4316,-5.4356,-5.4387,-5.4417,-5.4445,-5.4467,-5.4463,-5.4494,-5.4539,-5.4565,-5.4615,-5.4656,-5.4691,-5.4701,-5.4682,-5.468,-5.4693,-5.4698,-5.4698,-5.4699,-5.4527,-5.4676,-5.4674,-5.4673,-5.4673,-5.4672,-5.4372,-5.4412,-5.4438,-5.4481,-5.4502,-5.4528,-5.4565,-5.4574,-5.4611,-5.4653,-5.4646,-5.4696,-5.4718,-5.4764,-5.4778,-5.4816,-5.4796,-5.4815,-5.482,-5.4825,-5.4831,-5.4692,-5.4822,-5.4822,-5.4822,-5.4821,-5.4821,0,-5.4503,-5.4518,-5.4559,-5.46,-5.4634,-5.4614,-5.4643,-5.4673,-5.4718,-5.4742,-5.4775,-5.4826,-5.4866,-5.4876,-5.4914,-5.4942,-5.4934,-5.4952,-5.495,-5.4953,-5.4847,-5.4832,-5.4958,-5.4958,-5.4958,-5.4958,-5.4958,-5.4958,-5.4574,-5.464,-5.4643,-5.4718,-5.4732,-5.4783,-5.4802,-5.4825,-5.4844,-5.4903,-5.4937,-5.4944,-5.4962,-5.5001,-5.5036,-5.5038,-5.5053,-5.5075,-5.5073,-5.4974,-5.496,-5.4947,-5.4933,-5.5078,-5.5078,-5.5175,-5.5176,-5.5177]}]]